Weather History for Orr, MN

Change the Weather History Date:

Sunday, November 11, 2012

  Actual Average Record
Temperature  
Mean Temperature 34 °F -  
Max Temperature 48 °F 34 °F 60 °F (2005)
Min Temperature 21 °F 20 °F 8 °F (2008)
Degree Days  
Heating Degree Days 30    
Moisture  
Dew Point 27 °F    
Average Humidity 83    
Maximum Humidity 93    
Minimum Humidity 68    
Precipitation  
Precipitation 0.01 in - - ()
Sea Level Pressure  
Sea Level Pressure 29.57 in    
Wind  
Wind Speed 9 mph (WSW)    
Max Wind Speed 14 mph    
Max Gust Speed 22 mph    
Visibility 9 miles    
Events Rain , Snow    
Averages and records for this station are not official NWS values.
T = Trace of Precipitation, MM = Missing Value Source: NWS Daily Summary

Daily Weather History Graph

Daily Weather History Graph

Search for Another Location

Airport:

Trip Planner

Search our weather history database for the weather conditions in past years. The results will help you decide how hot, cold, wet, or windy it might be!

Date:

Astronomy

Nov. 11, 2012 Rise Set
Actual Time 7:12 AM CST 4:37 PM CST
Civil Twilight 6:39 AM CST 5:11 PM CST
Nautical Twilight 6:01 AM CST 5:48 PM CST
Astronomical Twilight 5:25 AM CST 6:25 PM CST
Moon 4:17 AM CST (11/11) 3:09 PM CST (11/11)
Length of Visible Light 10h 32m
Length of Day
9h 25m
Waning Crescent, 7% of the Moon is Illuminated
Nov 11
Waning Crescent
Nov 13
New
Nov 20
First Quarter
Nov 28
Full
Dec 6
Last Quarter

Hourly Weather History & Observations

Time (CST) Temp. Windchill Dew Point Humidity Pressure Visibility Wind Dir Wind Speed Gust Speed Precip Events Conditions
12:13 AM 42.8 °F 38.6 °F 39.2 °F 87% 29.39 in 7.0 mi East 6.9 mph - 0.01 in Rain Rain
12:33 AM 42.8 °F 39.3 °F 39.2 °F 87% 29.40 in 10.0 mi SE 5.8 mph - 0.01 in   Drizzle
12:53 AM 42.8 °F 38.6 °F 41.0 °F 93% 29.40 in 10.0 mi ESE 6.9 mph - 0.01 in   Scattered Clouds
1:13 AM 44.6 °F 39.2 °F 42.8 °F 93% 29.41 in 10.0 mi SE 10.4 mph - N/A   Scattered Clouds
1:34 AM 44.6 °F 40.2 °F 42.8 °F 93% 29.37 in 7.0 mi SE 8.1 mph - N/A   Scattered Clouds
1:53 AM 46.4 °F 41.9 °F 44.6 °F 93% 29.38 in 7.0 mi SE 9.2 mph - N/A   Clear
2:13 AM 46.4 °F 41.5 °F 44.6 °F 93% 29.37 in 7.0 mi SE 10.4 mph - N/A   Scattered Clouds
2:33 AM 46.4 °F 42.9 °F 44.6 °F 93% 29.36 in 5.0 mi SSE 6.9 mph - N/A   Scattered Clouds
2:53 AM 46.4 °F 42.9 °F 44.6 °F 93% 29.38 in 7.0 mi South 6.9 mph - N/A   Clear
3:13 AM 48.2 °F - 46.4 °F 93% 29.38 in 5.0 mi South 8.1 mph - N/A   Scattered Clouds
3:33 AM 48.2 °F - 46.4 °F 93% 29.39 in 5.0 mi South 8.1 mph - N/A   Scattered Clouds
3:53 AM 48.2 °F - 46.4 °F 93% 29.39 in 3.0 mi South 8.1 mph 16.1 mph N/A   Light Drizzle
4:13 AM 48.2 °F - 46.4 °F 93% 29.39 in 4.0 mi SW 10.4 mph 16.1 mph N/A Rain Light Rain
4:33 AM 48.2 °F - 46.4 °F 93% 29.40 in 5.0 mi SSW 10.4 mph 17.3 mph N/A   Light Drizzle
4:53 AM 46.4 °F 41.5 °F 44.6 °F 93% 29.40 in 4.0 mi SW 10.4 mph 18.4 mph N/A Rain Light Rain
5:13 AM 46.4 °F 41.9 °F 44.6 °F 93% 29.41 in 10.0 mi WSW 9.2 mph - N/A   Mostly Cloudy
5:33 AM 44.6 °F 38.8 °F 42.8 °F 93% 29.43 in 4.0 mi West 11.5 mph 19.6 mph N/A Rain Rain
5:53 AM 42.8 °F 36.6 °F 39.2 °F 87% 29.45 in 5.0 mi West 11.5 mph - N/A   Scattered Clouds
6:13 AM 41.0 °F 33.5 °F 37.4 °F 87% 29.48 in 5.0 mi West 13.8 mph 21.9 mph N/A   Scattered Clouds
6:33 AM 39.2 °F 33.6 °F 35.6 °F 87% 29.50 in 7.0 mi WSW 8.1 mph - N/A   Mostly Cloudy
6:54 AM 37.4 °F 29.8 °F 33.8 °F 87% 29.51 in 10.0 mi West 11.5 mph 16.1 mph N/A   Overcast
7:33 AM 33.8 °F 25.3 °F 30.2 °F 87% 29.54 in 10.0 mi West 11.5 mph 17.3 mph N/A   Overcast
7:53 AM 33.8 °F 27.7 °F 30.2 °F 87% 29.56 in 10.0 mi WSW 6.9 mph - N/A   Overcast
8:13 AM 33.8 °F 27.7 °F 30.2 °F 87% 29.56 in 10.0 mi WSW 6.9 mph - N/A   Overcast
8:34 AM 33.8 °F 27.7 °F 30.2 °F 87% 29.57 in 4.0 mi WSW 6.9 mph - N/A Snow Snow
8:53 AM 33.8 °F 24.8 °F 30.2 °F 87% 29.57 in 10.0 mi West 12.7 mph 17.3 mph N/A   Mostly Cloudy
9:33 AM 32.0 °F 26.4 °F 28.4 °F 87% 29.57 in 10.0 mi WSW 5.8 mph - N/A   Mostly Cloudy
9:53 AM 32.0 °F 24.2 °F 28.4 °F 87% 29.57 in 10.0 mi West 9.2 mph - N/A   Mostly Cloudy
10:13 AM 30.2 °F 21.9 °F 28.4 °F 93% 29.60 in 10.0 mi West 9.2 mph - N/A   Mostly Cloudy
10:33 AM 30.2 °F 22.6 °F 26.6 °F 86% 29.61 in 10.0 mi West 8.1 mph - N/A   Overcast
10:53 AM 30.2 °F 21.3 °F 26.6 °F 86% 29.61 in 10.0 mi WSW 10.4 mph - N/A   Overcast
11:13 AM 30.2 °F 22.6 °F 26.6 °F 86% 29.58 in 10.0 mi WSW 8.1 mph - N/A   Mostly Cloudy
11:33 AM 28.4 °F 19.1 °F 26.6 °F 93% 29.60 in 10.0 mi West 10.4 mph 16.1 mph N/A   Mostly Cloudy
12:13 PM 28.4 °F 19.7 °F 24.8 °F 86% 29.63 in 10.0 mi West 9.2 mph - N/A   Mostly Cloudy
12:33 PM 28.4 °F 21.2 °F 24.8 °F 86% 29.61 in 10.0 mi WSW 6.9 mph - N/A   Overcast
12:53 PM 28.4 °F 19.7 °F 23.0 °F 80% 29.61 in 10.0 mi West 9.2 mph - N/A   Overcast
1:13 PM 28.4 °F 22.2 °F 23.0 °F 80% 29.62 in 10.0 mi West 5.8 mph - N/A   Overcast
1:33 PM 28.4 °F 21.2 °F 23.0 °F 80% 29.61 in 10.0 mi West 6.9 mph - N/A   Overcast
1:53 PM 28.4 °F 21.2 °F 21.2 °F 74% 29.61 in 10.0 mi West 6.9 mph - N/A   Overcast
2:13 PM 28.4 °F 19.1 °F 21.2 °F 74% 29.61 in 10.0 mi West 10.4 mph - N/A   Overcast
2:33 PM 26.6 °F 16.2 °F 21.2 °F 80% 29.62 in 10.0 mi WSW 11.5 mph - N/A   Overcast
2:53 PM 26.6 °F 16.8 °F 21.2 °F 80% 29.63 in 10.0 mi West 10.4 mph - N/A   Overcast
3:14 PM 26.6 °F 17.5 °F 21.2 °F 80% 29.63 in 10.0 mi West 9.2 mph - N/A   Overcast
3:33 PM 26.6 °F 17.5 °F 19.4 °F 74% 29.65 in 10.0 mi West 9.2 mph - N/A   Overcast
3:53 PM 26.6 °F 18.2 °F 19.4 °F 74% 29.63 in 10.0 mi West 8.1 mph - N/A   Overcast
4:14 PM 24.8 °F 16.9 °F 19.4 °F 80% 29.64 in 10.0 mi West 6.9 mph - N/A   Overcast
4:33 PM 24.8 °F 14.6 °F 19.4 °F 80% 29.64 in 10.0 mi West 10.4 mph - N/A   Overcast
4:53 PM 24.8 °F 15.3 °F 19.4 °F 80% 29.64 in 10.0 mi West 9.2 mph - N/A   Overcast
5:13 PM 24.8 °F 14.6 °F 19.4 °F 80% 29.65 in 10.0 mi West 10.4 mph 17.3 mph N/A   Overcast
5:33 PM 24.8 °F 13.4 °F 17.6 °F 74% 29.65 in 10.0 mi WNW 12.7 mph 18.4 mph N/A   Overcast
5:53 PM 24.8 °F 15.3 °F 17.6 °F 74% 29.67 in 10.0 mi West 9.2 mph - N/A   Overcast
6:13 PM 24.8 °F 14.0 °F 15.8 °F 69% 29.67 in 10.0 mi West 11.5 mph - N/A   Overcast
6:33 PM 24.8 °F 13.4 °F 17.6 °F 74% 29.67 in 10.0 mi West 12.7 mph 18.4 mph N/A   Overcast
6:53 PM 23.0 °F 13.1 °F 15.8 °F 74% 29.67 in 10.0 mi West 9.2 mph - N/A   Overcast
7:13 PM 23.0 °F 13.9 °F 15.8 °F 74% 29.67 in 10.0 mi West 8.1 mph - N/A   Overcast
7:33 PM 23.0 °F 11.7 °F 15.8 °F 74% 29.68 in 10.0 mi West 11.5 mph - N/A   Overcast
7:53 PM 23.0 °F 12.4 °F 15.8 °F 74% 29.68 in 10.0 mi West 10.4 mph - N/A Snow Light Snow
8:14 PM 23.0 °F 14.7 °F 15.8 °F 74% 29.68 in 10.0 mi WSW 6.9 mph - N/A Snow Light Snow
8:33 PM 21.2 °F 14.9 °F 17.6 °F 86% 29.68 in 7.0 mi WSW 4.6 mph - N/A Snow Light Snow
8:53 PM 21.2 °F 10.9 °F 17.6 °F 86% 29.68 in 7.0 mi WSW 9.2 mph - N/A Snow Light Snow
9:13 PM 21.2 °F 14.9 °F 15.8 °F 80% 29.68 in 10.0 mi WSW 4.6 mph - N/A Snow Light Snow
9:33 PM 21.2 °F 13.6 °F 15.8 °F 80% 29.69 in 10.0 mi WSW 5.8 mph - N/A Snow Light Snow
9:54 PM 21.2 °F 13.6 °F 15.8 °F 80% 29.69 in 10.0 mi WSW 5.8 mph - N/A   Overcast
10:13 PM 21.2 °F 12.6 °F 15.8 °F 80% 29.69 in 10.0 mi SW 6.9 mph - N/A Snow Light Snow
10:33 PM 21.2 °F 11.7 °F 14.0 °F 74% 29.69 in 10.0 mi WSW 8.1 mph - N/A   Overcast
10:53 PM 21.2 °F 10.9 °F 12.2 °F 68% 29.69 in 10.0 mi WSW 9.2 mph 17.3 mph N/A Snow Light Snow
11:13 PM 21.2 °F 11.7 °F 14.0 °F 74% 29.69 in 10.0 mi SW 8.1 mph - N/A Snow Light Snow
11:33 PM 21.2 °F 10.9 °F 14.0 °F 74% 29.69 in 10.0 mi SW 9.2 mph - N/A Snow Light Snow
11:53 PM 21.2 °F 12.6 °F 15.8 °F 80% 29.69 in 10.0 mi WSW 6.9 mph - N/A Snow Light Snow